Location: Seasalter
(51.3333°N, 1.0167°E)
Time: 04:35:01
(UTC+00:00)

Nadezhda 1 Rocket - Pass Details

Date: 26 September 2023
Orbit: 940 x 1006 km, 83.0° (Epoch: 29 November)

Event Time Altitude Azimuth Distance (km) Brightness Sun altitude
Rises 04:35:14 0° 351° (N) 3,739 7.1 -12.1°
Reaches altitude 10° 04:37:49 10° 354° (N) 2,780 6.5 -11.7°
Maximum altitude 04:44:11 69° 77° (ENE) 1,058 4.5 -10.7°
Drops below altitude 10° 04:50:25 10° 161° (SSE) 2,720 6.5 -9.8°
Sets 04:52:55 0° 164° (SSE) 3,653 7.1 -9.4°
